Overview Statistics Trail Chart Weather Telemetry Raw packets
 

This is the latest recevied weather packets stored in our database for station/object K0QED. If no packets are shown the sender has not sent any weather packets the latest 10 day(s).

<< 38 39 40 41 42 43 44 >>
Time Temp. Humidity Pressure Rain* Wind** Luminosity Snow
1788363615 22.22° C 35% 1026.5 hPa 0 mm - 30 W/m² -
1788363314 22.22° C 35% 1026.5 hPa 0 mm - 30 W/m² -
1788363010 22.22° C 34% 1026.4 hPa 0 mm - 31 W/m² -
1788362706 21.67° C 37% 1026.6 hPa 0 mm - 47 W/m² -
1788362401 21.67° C 35% 1026.4 hPa 0 mm - 29 W/m² -
1788362097 21.67° C 36% 1026.4 hPa 0 mm - 43 W/m² -
1788361796 21.11° C 37% 1026.4 hPa 0 mm - 49 W/m² -
1788361492 21.11° C 37% 1026.5 hPa 0 mm - 43 W/m² -
1788361191 21.11° C 37% 1026.1 hPa 0 mm - 48 W/m² -
1788360882 20.56° C 38% 1026.4 hPa 0 mm - 40 W/m² -
1788360581 20.56° C 38% 1026.1 hPa 0 mm - 53 W/m² -
1788360278 20° C 39% 1026.2 hPa 0 mm - 56 W/m² -
1788359972 20° C 40% 1026.2 hPa 0 mm - 38 W/m² -
1788359667 19.44° C 40% 1026.1 hPa 0 mm - 50 W/m² -
1788359362 19.44° C 42% 1026 hPa 0 mm - 24 W/m² -
1788359058 18.89° C 43% 1026.1 hPa 0 mm - 24 W/m² -
1788358754 18.89° C 42% 1026 hPa 0 mm - 37 W/m² -
1788358449 18.89° C 43% 1026 hPa 0 mm - 28 W/m² -
1788358148 18.89° C 43% 1026.1 hPa 0 mm - 22 W/m² -
1788357844 18.33° C 43% 1026.1 hPa 0 mm - 21 W/m² -
1788357538 18.33° C 43% 1026 hPa 0 mm - 20 W/m² -
1788357234 17.78° C 44% 1025.9 hPa 0 mm - 20 W/m² -
1788356932 17.78° C 44% 1025.6 hPa 0 mm - 19 W/m² -
1788356629 17.22° C 46% 1025.6 hPa 0 mm - 19 W/m² -
1788356323 17.22° C 47% 1025.9 hPa 0 mm - 18 W/m² -

* Rain latest hour (hover to see other rain measurements)
** Current wind speed in m/s (hover to see current wind gust speed)